Location: Newark
(45.9456°N, 15.4064°E)
Time: 11:36:11
(UTC+00:00)

Vanguard 3 - Pass Details

Date: 27 January 2020
Orbit: 508 x 3263 km, 33.3° (Epoch: 22 February)

Event Time Altitude Azimuth Distance (km) Brightness Sun altitude
Rises 15:34:35 0° 229° (SW) 6,713 14.1 2.4°
Reaches altitude 10° 15:39:04 10° 224° (SW) 5,919 13.2 1.7°
Maximum altitude 15:56:46 45° 160° (SSE) 3,963 10.7 -1.0°
Drops below altitude 10° 16:12:56 10° 95° (E) 5,461 10.8 -3.6°
Enters shadow 16:16:50 - 90° (E) 6,177 11.0 -4.2°
Sets 16:16:50 0° 90° (E) 6,179 - -4.2°
